Time,TemperatureF,DewpointF,PressureIn,WindDirection,WindDirectionDegrees,WindSpeedMPH,WindSpeedGustMPH,Humidity,HourlyPrecipIn,Conditions,Clouds,dailyrainin,SoftwareType,DateUTC
2013-03-25 08:11:00,14.9,10.0,30.45,West,274,0.0,-999.0,82,-99.99,,,0.00,weatherlink.com 1.10,2013-03-25 14:11:00,
2013-03-25 08:27:00,15.9,11.0,30.45,West,274,0.0,-999.0,80,-99.99,,,0.00,weatherlink.com 1.10,2013-03-25 14:27:00,
2013-03-25 08:42:00,17.3,11.0,30.46,SE,140,0.0,-999.0,77,-99.99,,,0.00,weatherlink.com 1.10,2013-03-25 14:42:00,
2013-03-25 08:57:00,18.3,10.0,30.45,SE,136,0.0,-999.0,70,-99.99,,,0.00,weatherlink.com 1.10,2013-03-25 14:57:00,
2013-03-25 09:12:00,19.1,11.0,30.45,East,101,0.0,-999.0,70,-99.99,,,0.00,weatherlink.com 1.10,2013-03-25 15:12:00,
2013-03-25 09:27:00,19.2,11.0,30.45,South,178,0.0,-999.0,70,-99.99,,,0.00,weatherlink.com 1.10,2013-03-25 15:27:00,
2013-03-25 09:42:00,18.9,11.0,30.45,SE,140,0.0,-999.0,70,-99.99,,,0.00,weatherlink.com 1.10,2013-03-25 15:42:00,
2013-03-25 09:57:00,19.4,11.0,30.44,SE,140,0.0,-999.0,71,-99.99,,,0.00,weatherlink.com 1.10,2013-03-25 15:57:00,
2013-03-25 10:12:00,21.3,12.0,30.43,East,99,0.0,-999.0,68,-99.99,,,0.00,weatherlink.com 1.10,2013-03-25 16:12:00,
2013-03-25 10:27:00,23.9,13.0,30.43,East,99,0.0,-999.0,64,-99.99,,,0.00,weatherlink.com 1.10,2013-03-25 16:27:00,
2013-03-25 10:42:00,25.7,15.0,30.42,South,177,0.0,-999.0,64,-99.99,,,0.00,weatherlink.com 1.10,2013-03-25 16:42:00,
2013-03-25 10:57:00,27.2,14.0,30.40,SSE,167,0.0,-999.0,57,-99.99,,,0.00,weatherlink.com 1.10,2013-03-25 16:57:00,
2013-03-25 11:12:00,27.2,15.0,30.39,South,182,5.0,-999.0,60,-99.99,,,0.00,weatherlink.com 1.10,2013-03-25 17:12:00,
2013-03-25 11:27:00,27.6,14.0,30.40,ESE,109,0.0,-999.0,57,-99.99,,,0.00,weatherlink.com 1.10,2013-03-25 17:27:00,
2013-03-25 11:42:00,27.9,14.0,30.38,ESE,104,1.0,-999.0,57,-99.99,,,0.00,weatherlink.com 1.10,2013-03-25 17:42:00,
2013-03-25 11:57:00,27.2,15.0,30.38,East,90,1.0,-999.0,60,-99.99,,,0.00,weatherlink.com 1.10,2013-03-25 17:57:00,
2013-03-25 12:12:00,27.6,14.0,30.39,East,84,3.0,-999.0,57,-99.99,,,0.00,weatherlink.com 1.10,2013-03-25 18:12:00,
2013-03-25 12:27:00,27.0,13.0,30.39,ESE,111,2.0,-999.0,55,-99.99,,,0.00,weatherlink.com 1.10,2013-03-25 18:27:00,
2013-03-25 12:42:00,27.6,13.0,30.39,SE,130,4.0,-999.0,54,-99.99,,,0.00,weatherlink.com 1.10,2013-03-25 18:42:00,
2013-03-25 12:57:00,28.5,14.0,30.38,SE,137,0.0,-999.0,55,-99.99,,,0.00,weatherlink.com 1.10,2013-03-25 18:57:00,
2013-03-25 13:12:00,28.8,14.0,30.36,SSE,155,3.0,-999.0,54,-99.99,,,0.00,weatherlink.com 1.10,2013-03-25 19:12:00,
2013-03-25 13:27:00,29.0,15.0,30.36,East,82,0.0,-999.0,57,-99.99,,,0.00,weatherlink.com 1.10,2013-03-25 19:27:00,
2013-03-25 13:42:00,28.8,15.0,30.36,East,89,1.0,-999.0,56,-99.99,,,0.00,weatherlink.com 1.10,2013-03-25 19:42:00,
2013-03-25 13:57:00,29.5,15.0,30.36,South,180,0.0,-999.0,54,-99.99,,,0.00,weatherlink.com 1.10,2013-03-25 19:57:00,
2013-03-25 14:12:00,29.8,14.0,30.36,SSE,154,6.0,-999.0,53,-99.99,,,0.00,weatherlink.com 1.10,2013-03-25 20:12:00,
2013-03-25 14:27:00,30.1,15.0,30.36,SE,138,0.0,-999.0,54,-99.99,,,0.00,weatherlink.com 1.10,2013-03-25 20:27:00,
2013-03-25 14:42:00,31.0,15.0,30.35,SW,234,0.0,-999.0,51,-99.99,,,0.00,weatherlink.com 1.10,2013-03-25 20:42:00,
2013-03-25 14:57:00,31.5,16.0,30.34,NE,46,0.0,-999.0,52,-99.99,,,0.00,weatherlink.com 1.10,2013-03-25 20:57:00,
2013-03-25 15:12:00,31.8,15.0,30.33,SSE,167,0.0,-999.0,50,-99.99,,,0.00,weatherlink.com 1.10,2013-03-25 21:12:00,
2013-03-25 15:27:00,32.2,14.0,30.34,South,181,0.0,-999.0,47,-99.99,,,0.00,weatherlink.com 1.10,2013-03-25 21:27:00,
2013-03-25 15:42:00,32.4,16.0,30.34,SSE,148,0.0,-999.0,50,-99.99,,,0.00,weatherlink.com 1.10,2013-03-25 21:42:00,
2013-03-25 15:57:00,32.2,15.0,30.34,SE,135,3.0,-999.0,50,-99.99,,,0.00,weatherlink.com 1.10,2013-03-25 21:57:00,
2013-03-25 16:12:00,31.8,13.0,30.34,South,171,1.0,-999.0,46,-99.99,,,0.00,weatherlink.com 1.10,2013-03-25 22:12:00,
2013-03-25 16:27:00,30.7,15.0,30.36,NNE,17,2.0,-999.0,53,-99.99,,,0.00,weatherlink.com 1.10,2013-03-25 22:27:00,
2013-03-25 16:42:00,30.1,13.0,30.36,WSW,251,0.0,-999.0,49,-99.99,,,0.00,weatherlink.com 1.10,2013-03-25 22:42:00,
2013-03-25 16:57:00,30.7,13.0,30.37,SSE,156,4.0,-999.0,49,-99.99,,,0.00,weatherlink.com 1.10,2013-03-25 22:57:00,
2013-03-25 17:12:00,31.5,13.0,30.35,South,185,4.0,-999.0,46,-99.99,,,0.00,weatherlink.com 1.10,2013-03-25 23:12:00,
2013-03-25 17:27:00,31.6,13.0,30.34,SSW,193,3.0,-999.0,47,-99.99,,,0.00,weatherlink.com 1.10,2013-03-25 23:27:00,
2013-03-25 17:42:00,31.6,13.0,30.34,South,174,4.0,-999.0,46,-99.99,,,0.00,weatherlink.com 1.10,2013-03-25 23:42:00,
2013-03-25 17:57:00,31.2,12.0,30.34,South,182,1.0,-999.0,46,-99.99,,,0.00,weatherlink.com 1.10,2013-03-25 23:57:00,
2013-03-25 18:12:00,29.7,13.0,30.34,South,178,0.0,-999.0,51,-99.99,,,0.00,weatherlink.com 1.10,2013-03-26 00:12:00,
2013-03-25 18:27:00,28.2,15.0,30.34,South,178,0.0,-999.0,58,-99.99,,,0.00,weatherlink.com 1.10,2013-03-26 00:27:00,
2013-03-25 18:42:00,26.4,15.0,30.36,South,178,0.0,-999.0,62,-99.99,,,0.00,weatherlink.com 1.10,2013-03-26 00:42:00,
2013-03-25 18:57:00,25.3,13.0,30.37,South,178,0.0,-999.0,60,-99.99,,,0.00,weatherlink.com 1.10,2013-03-26 00:57:00,
2013-03-25 19:12:00,24.5,13.0,30.39,South,178,0.0,-999.0,63,-99.99,,,0.00,weatherlink.com 1.10,2013-03-26 01:12:00,
2013-03-25 19:27:00,23.6,13.0,30.39,South,178,0.0,-999.0,64,-99.99,,,0.00,weatherlink.com 1.10,2013-03-26 01:27:00,
2013-03-25 19:42:00,22.7,13.0,30.39,South,178,0.0,-999.0,66,-99.99,,,0.00,weatherlink.com 1.10,2013-03-26 01:42:00,
2013-03-25 19:57:00,21.9,12.0,30.39,South,178,0.0,-999.0,66,-99.99,,,0.00,weatherlink.com 1.10,2013-03-26 01:57:00,
2013-03-25 20:12:00,21.6,11.0,30.41,South,178,0.0,-999.0,65,-99.99,,,0.00,weatherlink.com 1.10,2013-03-26 02:12:00,
2013-03-25 20:27:00,21.3,12.0,30.38,South,178,0.0,-999.0,67,-99.99,,,0.00,weatherlink.com 1.10,2013-03-26 02:27:00,
2013-03-25 20:42:00,21.0,12.0,30.39,South,178,0.0,-999.0,69,-99.99,,,0.00,weatherlink.com 1.10,2013-03-26 02:42:00,
2013-03-25 20:57:00,20.8,12.0,30.39,South,178,0.0,-999.0,68,-99.99,,,0.00,weatherlink.com 1.10,2013-03-26 02:57:00,
2013-03-25 21:12:00,21.0,11.0,30.39,South,178,0.0,-999.0,66,-99.99,,,0.00,weatherlink.com 1.10,2013-03-26 03:12:00,
2013-03-25 21:27:00,21.0,11.0,30.38,South,178,0.0,-999.0,65,-99.99,,,0.00,weatherlink.com 1.10,2013-03-26 03:27:00,
2013-03-25 21:57:00,20.8,11.0,30.38,South,178,0.0,-999.0,65,-99.99,,,0.00,weatherlink.com 1.10,2013-03-26 03:57:00,
2013-03-25 22:27:00,21.6,11.0,30.33,South,178,0.0,-999.0,64,-99.99,,,0.00,weatherlink.com 1.10,2013-03-26 04:27:00,
2013-03-25 22:42:00,21.6,11.0,30.32,South,178,0.0,-999.0,63,-99.99,,,0.00,weatherlink.com 1.10,2013-03-26 04:42:00,
2013-03-25 22:57:00,22.2,11.0,30.32,South,178,0.0,-999.0,61,-99.99,,,0.00,weatherlink.com 1.10,2013-03-26 04:57:00,
2013-03-25 23:12:00,22.2,11.0,30.32,South,178,0.0,-999.0,61,-99.99,,,0.00,weatherlink.com 1.10,2013-03-26 05:12:00,
2013-03-25 23:28:00,22.2,10.0,30.31,ENE,72,0.0,-999.0,60,-99.99,,,0.00,weatherlink.com 1.10,2013-03-26 05:28:00,
2013-03-25 23:43:00,22.9,10.0,30.31,ENE,72,0.0,-999.0,59,-99.99,,,0.00,weatherlink.com 1.10,2013-03-26 05:43:00,
2013-03-25 23:58:00,21.1,10.0,30.29,ENE,72,0.0,-999.0,62,-99.99,,,0.00,weatherlink.com 1.10,2013-03-26 05:58:00,